Location: Felsheim
(48.7267°N, 10.7386°E)
Time: 18:25:04
(UTC+00:00)

Cosmos 2228 - Pass Details

Date: 09 April 2020
Orbit: 589 x 619 km, 82.5° (Epoch: 23 May)

Event Time Altitude Azimuth Distance (km) Brightness Sun altitude
Rises 19:06:56 0° 197° (SSW) 2,839 6.4 -11.2°
Reaches altitude 10° 19:09:09 10° 201° (SSW) 1,946 5.6 -11.5°
Maximum altitude 19:13:24 61° 282° (WNW) 697 3.6 -12.1°
Drops below altitude 10° 19:17:45 10° 3° (N) 1,980 6.0 -12.8°
Sets 19:20:01 0° 7° (N) 2,894 6.8 -13.1°
